,,,PA_Meas_PMT16A,,PR_Meas_QMR101_102,,RH_Meas_QMH101,,SR_Meas_QMS101,,TA_Meas_QMH101,,GenWind,,GenWind,
date,time,status,PA,status,PR,status,RH,status,SR,status,TA,status,DirAvg,status,SpdAvg,
2010-03-02, 00:00:04,VALID,1002.1,VALID,0,VALID,92.3489,VALID,0,VALID,23.0183,VALID,355,VALID,0,
2010-03-02, 00:01:04,VALID,1002.12,VALID,0,VALID,91.853,VALID,0,VALID,22.9403,VALID,355,VALID,0,
2010-03-02, 00:02:04,VALID,1002.1,VALID,0,VALID,91.6775,VALID,0,VALID,22.8037,VALID,355,VALID,0,
2010-03-02, 00:03:04,VALID,1002.09,VALID,0,VALID,91.9751,VALID,0,VALID,22.7257,VALID,355,VALID,0,
2010-03-02, 00:04:04,VALID,1002.07,VALID,0,VALID,92.1811,VALID,0,VALID,22.7257,VALID,355,VALID,0,
2010-03-02, 00:05:04,VALID,1002.09,VALID,0,VALID,92.3413,VALID,0,VALID,22.7257,VALID,355,VALID,0,
2010-03-02, 00:06:04,VALID,1002.04,VALID,0,VALID,92.6312,VALID,0,VALID,22.7647,VALID,355,VALID,0,
2010-03-02, 00:07:04,VALID,1002.02,VALID,0,VALID,92.6617,VALID,0,VALID,22.8037,VALID,48,VALID,0,
2010-03-02, 00:08:04,VALID,1002,VALID,0,VALID,92.7914,VALID,0,VALID,22.8427,VALID,56,VALID,0,
2010-03-02, 00:09:04,VALID,1001.98,VALID,0,VALID,92.7762,VALID,0,VALID,22.8623,VALID,63,VALID,0,
2010-03-02, 00:10:04,VALID,1001.97,VALID,0,VALID,92.7838,VALID,0,VALID,22.9013,VALID,63,VALID,0,
2010-03-02, 00:11:04,VALID,1001.94,VALID,0,VALID,92.7457,VALID,0,VALID,22.9013,VALID,63,VALID,0,
2010-03-02, 00:12:04,VALID,1001.91,VALID,0,VALID,92.5854,VALID,0.112286,VALID,22.8605,VALID,63,VALID,0,
2010-03-02, 00:13:04,VALID,1001.91,VALID,0,VALID,92.4481,VALID,0,VALID,22.8232,VALID,63,VALID,0,
2010-03-02, 00:14:04,VALID,1001.9,VALID,0,VALID,92.4023,VALID,0,VALID,22.763,VALID,63,VALID,0,
2010-03-02, 00:15:04,VALID,1001.89,VALID,0,VALID,92.4863,VALID,0,VALID,22.7452,VALID,63,VALID,0,
2010-03-02, 00:16:04,VALID,1001.86,VALID,0,VALID,92.5854,VALID,0,VALID,22.724,VALID,63,VALID,0,
2010-03-02, 00:17:04,VALID,1001.82,VALID,0,VALID,92.7151,VALID,0,VALID,22.7452,VALID,63,VALID,0,
2010-03-02, 00:18:04,VALID,1001.79,VALID,0,VALID,92.7533,VALID,0,VALID,22.7647,VALID,63,VALID,0,
2010-03-02, 00:19:04,VALID,1001.74,VALID,0,VALID,92.7762,VALID,0,VALID,22.7647,VALID,63,VALID,0,
2010-03-02, 00:20:04,VALID,1001.73,VALID,0,VALID,92.9745,VALID,0,VALID,22.802,VALID,63,VALID,0,
2010-03-02, 00:21:04,VALID,1001.74,VALID,0,VALID,93.0203,VALID,0,VALID,22.8623,VALID,63,VALID,0,
2010-03-02, 00:22:04,VALID,1001.72,VALID,0,VALID,93.0203,VALID,0,VALID,22.8818,VALID,63,VALID,0,
2010-03-02, 00:23:04,VALID,1001.75,VALID,0,VALID,93.0356,VALID,0,VALID,22.9403,VALID,63,VALID,0,
2010-03-02, 00:24:04,VALID,1001.74,VALID,0,VALID,92.8601,VALID,0,VALID,22.9208,VALID,63,VALID,0,
2010-03-02, 00:25:04,VALID,1001.75,VALID,0,VALID,92.9135,VALID,0,VALID,22.9208,VALID,63,VALID,0,
2010-03-02, 00:26:04,VALID,1001.78,VALID,0,VALID,92.9288,VALID,0,VALID,22.919,VALID,63,VALID,0,
2010-03-02, 00:27:04,VALID,1001.75,VALID,0,VALID,92.9288,VALID,0,VALID,22.9403,VALID,63,VALID,0,
2010-03-02, 00:28:04,VALID,1001.76,VALID,0,VALID,92.8067,VALID,0,VALID,22.9208,VALID,63,VALID,0,
2010-03-02, 00:29:04,VALID,1001.73,VALID,0,VALID,92.7457,VALID,0,VALID,22.9013,VALID,63,VALID,0,
2010-03-02, 00:30:04,VALID,1001.71,VALID,0,VALID,92.5854,VALID,0,VALID,22.8427,VALID,63,VALID,0,
2010-03-02, 00:31:04,VALID,1001.69,VALID,0,VALID,92.5244,VALID,0,VALID,22.7842,VALID,63,VALID,0,
2010-03-02, 00:32:04,VALID,1001.63,VALID,0,VALID,92.5244,VALID,0,VALID,22.7452,VALID,63,VALID,0,
2010-03-02, 00:33:04,VALID,1001.64,VALID,0,VALID,92.5168,VALID,0,VALID,22.7062,VALID,63,VALID,0,
2010-03-02, 00:34:04,VALID,1001.63,VALID,0,VALID,92.5702,VALID,0,VALID,22.6672,VALID,63,VALID,0,
2010-03-02, 00:35:04,VALID,1001.6,VALID,0,VALID,92.7533,VALID,0,VALID,22.6477,VALID,63,VALID,0,
2010-03-02, 00:36:04,VALID,1001.61,VALID,0,VALID,92.8143,VALID,0.112286,VALID,22.6867,VALID,63,VALID,0,
2010-03-02, 00:37:04,VALID,1001.59,VALID,0,VALID,92.7685,VALID,0,VALID,22.6672,VALID,63,VALID,0,
2010-03-02, 00:38:04,VALID,1001.55,VALID,0,VALID,92.8296,VALID,0,VALID,22.6867,VALID,63,VALID,0,
2010-03-02, 00:39:04,VALID,1001.57,VALID,0,VALID,92.9211,VALID,0,VALID,22.6867,VALID,63,VALID,0,
2010-03-02, 00:40:04,VALID,1001.57,VALID,0,VALID,92.944,VALID,0,VALID,22.7257,VALID,63,VALID,0,
2010-03-02, 00:41:04,VALID,1001.57,VALID,0,VALID,92.9364,VALID,0,VALID,22.7452,VALID,63,VALID,0,
2010-03-02, 00:42:04,VALID,1001.54,VALID,0,VALID,92.9211,VALID,0,VALID,22.7452,VALID,63,VALID,0,
2010-03-02, 00:43:04,VALID,1001.51,VALID,0,VALID,92.8372,VALID,0,VALID,22.7257,VALID,63,VALID,0,
2010-03-02, 00:44:04,VALID,1001.48,VALID,0,VALID,92.6999,VALID,0,VALID,22.6672,VALID,64,VALID,0,
2010-03-02, 00:45:04,VALID,1001.48,VALID,0,VALID,92.9059,VALID,0,VALID,22.646,VALID,64,VALID,0,
2010-03-02, 00:46:04,VALID,1001.47,VALID,0,VALID,92.9669,VALID,0,VALID,22.6672,VALID,64,VALID,0,
2010-03-02, 00:47:04,VALID,1001.46,VALID,0,VALID,93.0737,VALID,0,VALID,22.7257,VALID,64,VALID,0,
2010-03-02, 00:48:04,VALID,1001.47,VALID,0,VALID,92.9822,VALID,0,VALID,22.7257,VALID,64,VALID,0,
2010-03-02, 00:49:04,VALID,1001.47,VALID,0,VALID,92.7609,VALID,0,VALID,22.6672,VALID,56,VALID,0,
2010-03-02, 00:50:04,VALID,1001.48,VALID,0,VALID,92.8906,VALID,0,VALID,22.6672,VALID,49,VALID,0,
2010-03-02, 00:51:04,VALID,1001.46,VALID,0,VALID,92.8906,VALID,0,VALID,22.6282,VALID,49,VALID,0,
2010-03-02, 00:52:04,VALID,1001.45,VALID,0,VALID,92.883,VALID,0,VALID,22.6282,VALID,49,VALID,0,
2010-03-02, 00:53:04,VALID,1001.44,VALID,0,VALID,92.8525,VALID,0,VALID,22.6087,VALID,49,VALID,0,
2010-03-02, 00:54:04,VALID,1001.44,VALID,0,VALID,92.822,VALID,0,VALID,22.5696,VALID,49,VALID,0,
2010-03-02, 00:55:04,VALID,1001.42,VALID,0,VALID,92.8372,VALID,0.112286,VALID,22.5501,VALID,49,VALID,0,
2010-03-02, 00:56:04,VALID,1001.41,VALID,0,VALID,92.822,VALID,0.112286,VALID,22.5306,VALID,49,VALID,0,
2010-03-02, 00:57:04,VALID,1001.42,VALID,0,VALID,92.883,VALID,0,VALID,22.5306,VALID,49,VALID,0,
2010-03-02, 00:58:04,VALID,1001.38,VALID,0,VALID,92.8677,VALID,0,VALID,22.5111,VALID,49,VALID,0,
2010-03-02, 00:59:04,VALID,1001.38,VALID,0,VALID,92.9745,VALID,0,VALID,22.4899,VALID,49,VALID,0,
2010-03-02, 01:00:04,VALID,1001.38,VALID,0,VALID,93.0203,VALID,0,VALID,22.5306,VALID,49,VALID,0,
2010-03-02, 01:01:04,VALID,1001.38,VALID,0,VALID,92.9974,VALID,0,VALID,22.5111,VALID,49,VALID,0,
2010-03-02, 01:02:04,VALID,1001.35,VALID,0,VALID,92.9898,VALID,0,VALID,22.5111,VALID,49,VALID,0,
2010-03-02, 01:03:04,VALID,1001.4,VALID,0,VALID,92.9669,VALID,0,VALID,22.4899,VALID,49,VALID,0,
2010-03-02, 01:04:04,VALID,1001.38,VALID,0,VALID,93.0127,VALID,0,VALID,22.5111,VALID,49,VALID,0,
2010-03-02, 01:05:04,VALID,1001.33,VALID,0,VALID,93.0508,VALID,0,VALID,22.5306,VALID,49,VALID,0,
2010-03-02, 01:06:04,VALID,1001.34,VALID,0,VALID,93.0661,VALID,0,VALID,22.5094,VALID,49,VALID,0,
2010-03-02, 01:07:04,VALID,1001.31,VALID,0,VALID,93.0585,VALID,0,VALID,22.5306,VALID,49,VALID,0,
2010-03-02, 01:08:04,VALID,1001.29,VALID,0,VALID,93.1653,VALID,0,VALID,22.5501,VALID,49,VALID,0,
2010-03-02, 01:09:04,VALID,1001.3,VALID,0,VALID,93.0508,VALID,0,VALID,22.5501,VALID,54,VALID,0,
2010-03-02, 01:10:04,VALID,1001.31,VALID,0,VALID,93.0203,VALID,0,VALID,22.4721,VALID,62,VALID,0,
2010-03-02, 01:11:04,VALID,1001.26,VALID,0,VALID,93.0203,VALID,0,VALID,22.4526,VALID,62,VALID,0,
2010-03-02, 01:12:05,VALID,1001.29,VALID,0,VALID,93.028,VALID,0,VALID,22.4526,VALID,62,VALID,0,
2010-03-02, 01:13:05,VALID,1001.29,VALID,0,VALID,93.0737,VALID,0,VALID,22.4331,VALID,62,VALID,0,
2010-03-02, 01:14:05,VALID,1001.29,VALID,0,VALID,92.9898,VALID,0,VALID,22.3941,VALID,62,VALID,0,
2010-03-02, 01:15:05,VALID,1001.29,VALID,0,VALID,92.9745,VALID,0,VALID,22.3551,VALID,62,VALID,0,
2010-03-02, 01:16:05,VALID,1001.27,VALID,0,VALID,93.0051,VALID,0,VALID,22.3551,VALID,62,VALID,0,
2010-03-02, 01:17:05,VALID,1001.3,VALID,0,VALID,92.9822,VALID,0,VALID,22.3356,VALID,62,VALID,0,
2010-03-02, 01:18:05,VALID,1001.27,VALID,0,VALID,92.9745,VALID,0,VALID,22.3161,VALID,62,VALID,0,
2010-03-02, 01:19:05,VALID,1001.29,VALID,0,VALID,93.1119,VALID,0,VALID,22.3356,VALID,62,VALID,0,
2010-03-02, 01:20:05,VALID,1001.3,VALID,0,VALID,93.3331,VALID,0,VALID,22.3941,VALID,62,VALID,0,
2010-03-02, 01:21:05,VALID,1001.29,VALID,0,VALID,93.4552,VALID,0,VALID,22.4916,VALID,62,VALID,0,
2010-03-02, 01:22:05,VALID,1001.3,VALID,0,VALID,93.4705,VALID,0,VALID,22.5501,VALID,62,VALID,0,
2010-03-02, 01:23:05,VALID,1001.29,VALID,0,VALID,93.3866,VALID,0,VALID,22.5696,VALID,62,VALID,0,
2010-03-02, 01:24:05,VALID,1001.29,VALID,0,VALID,93.4247,VALID,0,VALID,22.5892,VALID,62,VALID,0,
2010-03-02, 01:25:05,VALID,1001.28,VALID,0,VALID,93.3942,VALID,0,VALID,22.6087,VALID,62,VALID,0,
2010-03-02, 01:26:05,VALID,1001.3,VALID,0,VALID,93.3179,VALID,0,VALID,22.5892,VALID,62,VALID,0,
2010-03-02, 01:27:05,VALID,1001.3,VALID,0,VALID,93.295,VALID,0,VALID,22.5484,VALID,62,VALID,0,
2010-03-02, 01:28:05,VALID,1001.27,VALID,0,VALID,93.234,VALID,0,VALID,22.5501,VALID,62,VALID,0,
2010-03-02, 01:29:05,VALID,1001.23,VALID,0,VALID,93.295,VALID,0,VALID,22.5306,VALID,62,VALID,0,
2010-03-02, 01:30:05,VALID,1001.2,VALID,0,VALID,93.3408,VALID,0,VALID,22.5501,VALID,62,VALID,0,
2010-03-02, 01:31:05,VALID,1001.21,VALID,0,VALID,93.3408,VALID,0,VALID,22.5696,VALID,62,VALID,0,
2010-03-02, 01:32:05,VALID,1001.2,VALID,0,VALID,93.3026,VALID,0,VALID,22.5501,VALID,62,VALID,0,
2010-03-02, 01:33:05,VALID,1001.18,VALID,0,VALID,93.3408,VALID,0,VALID,22.5306,VALID,62,VALID,0,
2010-03-02, 01:34:05,VALID,1001.17,VALID,0,VALID,93.3408,VALID,0,VALID,22.5696,VALID,62,VALID,0,
2010-03-02, 01:35:05,VALID,1001.15,VALID,0,VALID,93.3484,VALID,0,VALID,22.5696,VALID,62,VALID,0,
2010-03-02, 01:36:05,VALID,1001.16,VALID,0,VALID,93.3255,VALID,0,VALID,22.5484,VALID,62,VALID,0,
2010-03-02, 01:37:05,VALID,1001.13,VALID,0,VALID,93.356,VALID,0,VALID,22.5696,VALID,62,VALID,0,
2010-03-02, 01:38:05,VALID,1001.15,VALID,0,VALID,93.2721,VALID,0,VALID,22.5501,VALID,62,VALID,0,
2010-03-02, 01:39:05,VALID,1001.11,VALID,0,VALID,93.2568,VALID,0.112286,VALID,22.5306,VALID,62,VALID,0,
2010-03-02, 01:40:05,VALID,1001.11,VALID,0,VALID,93.1424,VALID,0,VALID,22.4314,VALID,62,VALID,0,
2010-03-02, 01:41:05,VALID,1001.11,VALID,0,VALID,93.0966,VALID,0,VALID,22.3746,VALID,62,VALID,0,
2010-03-02, 01:42:05,VALID,1001.09,VALID,0,VALID,93.3637,VALID,0,VALID,22.3941,VALID,62,VALID,0,
2010-03-02, 01:43:05,VALID,1001.1,VALID,0,VALID,93.4628,VALID,0,VALID,22.4331,VALID,62,VALID,0,
2010-03-02, 01:44:05,VALID,1001.1,VALID,0,VALID,93.44,VALID,0,VALID,22.4526,VALID,62,VALID,0,
2010-03-02, 01:45:05,VALID,1001.08,VALID,0,VALID,93.4171,VALID,0,VALID,22.4331,VALID,62,VALID,0,
2010-03-02, 01:46:05,VALID,1001.05,VALID,0,VALID,93.3789,VALID,0,VALID,22.3924,VALID,62,VALID,0,
2010-03-02, 01:47:05,VALID,1001.05,VALID,0,VALID,93.3331,VALID,0,VALID,22.3941,VALID,62,VALID,0,
2010-03-02, 01:48:05,VALID,1001.08,VALID,0,VALID,93.3408,VALID,0,VALID,22.3534,VALID,62,VALID,0,
2010-03-02, 01:49:05,VALID,1001.03,VALID,0,VALID,93.3408,VALID,0,VALID,22.3356,VALID,62,VALID,0,
2010-03-02, 01:50:05,VALID,1001.01,VALID,0,VALID,93.4781,VALID,0,VALID,22.3551,VALID,62,VALID,0,
2010-03-02, 01:51:05,VALID,1001.01,VALID,0,VALID,93.3789,VALID,0.112286,VALID,22.3551,VALID,62,VALID,0,
2010-03-02, 01:52:05,VALID,1001,VALID,0,VALID,93.4171,VALID,0,VALID,22.3161,VALID,62,VALID,0,
2010-03-02, 01:53:05,VALID,1001.01,VALID,0,VALID,93.5544,VALID,0,VALID,22.3551,VALID,62,VALID,0,
2010-03-02, 01:54:05,VALID,1000.99,VALID,0,VALID,93.4705,VALID,0,VALID,22.3746,VALID,62,VALID,0,
2010-03-02, 01:55:05,VALID,1001,VALID,0,VALID,93.356,VALID,0,VALID,22.3161,VALID,62,VALID,0,
2010-03-02, 01:56:05,VALID,1001.03,VALID,0,VALID,93.2416,VALID,0,VALID,22.2576,VALID,62,VALID,0,
2010-03-02, 01:57:05,VALID,1001.03,VALID,0,VALID,93.2492,VALID,0,VALID,22.199,VALID,62,VALID,0,
2010-03-02, 01:58:05,VALID,1001.05,VALID,0,VALID,93.1958,VALID,0,VALID,22.1405,VALID,62,VALID,0,
2010-03-02, 01:59:05,VALID,1001.07,VALID,0,VALID,93.2645,VALID,0,VALID,22.1015,VALID,62,VALID,0,
2010-03-02, 02:00:05,VALID,1001.06,VALID,0,VALID,93.3255,VALID,0,VALID,22.0608,VALID,62,VALID,0,
2010-03-02, 02:01:05,VALID,1001.08,VALID,0,VALID,93.2797,VALID,0,VALID,22.0625,VALID,62,VALID,0,
2010-03-02, 02:02:05,VALID,1001.11,VALID,0,VALID,93.3484,VALID,0,VALID,22.043,VALID,62,VALID,0,
2010-03-02, 02:03:05,VALID,1001.11,VALID,0,VALID,93.4247,VALID,0,VALID,22.043,VALID,62,VALID,0,
2010-03-02, 02:04:05,VALID,1001.1,VALID,0,VALID,93.5773,VALID,0,VALID,22.0608,VALID,62,VALID,0,
2010-03-02, 02:05:05,VALID,1001.11,VALID,0,VALID,93.5849,VALID,0,VALID,22.121,VALID,62,VALID,0,
2010-03-02, 02:06:05,VALID,1001.13,VALID,0,VALID,93.5926,VALID,0,VALID,22.1405,VALID,62,VALID,0,
2010-03-02, 02:07:05,VALID,1001.15,VALID,0,VALID,93.6307,VALID,0,VALID,22.1795,VALID,62,VALID,0,
2010-03-02, 02:08:05,VALID,1001.17,VALID,0,VALID,93.6383,VALID,0,VALID,22.2186,VALID,62,VALID,0,
2010-03-02, 02:09:05,VALID,1001.19,VALID,0,VALID,93.6612,VALID,0,VALID,22.2381,VALID,62,VALID,0,
2010-03-02, 02:10:05,VALID,1001.18,VALID,0,VALID,93.5926,VALID,0,VALID,22.2381,VALID,63,VALID,0,
2010-03-02, 02:11:05,VALID,1001.16,VALID,0,VALID,93.562,VALID,0,VALID,22.2186,VALID,63,VALID,0,
2010-03-02, 02:12:05,VALID,1001.14,VALID,0,VALID,93.5468,VALID,0,VALID,22.2186,VALID,63,VALID,0,
2010-03-02, 02:13:05,VALID,1001.13,VALID,0,VALID,93.5391,VALID,0,VALID,22.199,VALID,63,VALID,0,
2010-03-02, 02:14:05,VALID,1001.1,VALID,0,VALID,93.5468,VALID,0,VALID,22.2186,VALID,63,VALID,0,
2010-03-02, 02:15:05,VALID,1001.1,VALID,0,VALID,93.5468,VALID,0,VALID,22.2186,VALID,63,VALID,0,
2010-03-02, 02:16:05,VALID,1001.08,VALID,0,VALID,93.5391,VALID,0,VALID,22.2186,VALID,93,VALID,0,
2010-03-02, 02:17:05,VALID,1001.1,VALID,0,VALID,93.4476,VALID,0,VALID,22.1779,VALID,123,VALID,0,
2010-03-02, 02:18:05,VALID,1001.11,VALID,0,VALID,93.3866,VALID,0,VALID,22.16,VALID,123,VALID,0,
2010-03-02, 02:19:05,VALID,1001.09,VALID,0,VALID,93.3255,VALID,0,VALID,22.121,VALID,123,VALID,0,
2010-03-02, 02:20:05,VALID,1001.09,VALID,0,VALID,93.2645,VALID,0.112286,VALID,22.082,VALID,122,VALID,0.776953,
2010-03-02, 02:21:05,VALID,1001.1,VALID,0,VALID,93.1805,VALID,0.112286,VALID,22.0023,VALID,112,VALID,0.450781,
2010-03-02, 02:22:05,VALID,1001.08,VALID,0,VALID,93.1729,VALID,0,VALID,21.9845,VALID,110,VALID,0.370703,
2010-03-02, 02:23:05,VALID,1001.08,VALID,0,VALID,93.1805,VALID,0.112286,VALID,21.9455,VALID,110,VALID,0.250781,
2010-03-02, 02:24:05,VALID,1001.05,VALID,0,VALID,93.2263,VALID,0,VALID,21.965,VALID,110,VALID,0.108984,
2010-03-02, 02:25:05,VALID,1001.04,VALID,0,VALID,93.2874,VALID,0,VALID,21.965,VALID,110,VALID,0,
2010-03-02, 02:26:05,VALID,1001.03,VALID,0,VALID,93.3179,VALID,0.112286,VALID,21.9845,VALID,121,VALID,0,
2010-03-02, 02:27:05,VALID,1001,VALID,0,VALID,93.3866,VALID,0,VALID,22.0235,VALID,139,VALID,0.623047,
2010-03-02, 02:28:05,VALID,1000.98,VALID,0,VALID,93.4552,VALID,0,VALID,22.043,VALID,143,VALID,0.533984,
2010-03-02, 02:29:05,VALID,1000.96,VALID,0,VALID,93.3713,VALID,0.112286,VALID,22.0625,VALID,143,VALID,0.352734,
2010-03-02, 02:30:05,VALID,1000.97,VALID,0,VALID,93.2416,VALID,0,VALID,22.0252,VALID,143,VALID,0.199219,
2010-03-02, 02:31:05,VALID,1000.97,VALID,0,VALID,93.15,VALID,0,VALID,21.9862,VALID,143,VALID,0.278906,
2010-03-02, 02:32:05,VALID,1000.95,VALID,0,VALID,93.2416,VALID,0,VALID,21.9667,VALID,143,VALID,0,
2010-03-02, 02:33:05,VALID,1000.96,VALID,0,VALID,93.2721,VALID,0,VALID,21.9845,VALID,143,VALID,0,
2010-03-02, 02:34:05,VALID,1000.93,VALID,0,VALID,93.2645,VALID,0,VALID,22.0252,VALID,143,VALID,0.00429688,
2010-03-02, 02:35:05,VALID,1000.96,VALID,0,VALID,93.2492,VALID,0,VALID,22.0057,VALID,143,VALID,0,
2010-03-02, 02:36:05,VALID,1000.97,VALID,0,VALID,93.1805,VALID,0,VALID,21.9862,VALID,143,VALID,0,
2010-03-02, 02:37:05,VALID,1000.98,VALID,0,VALID,93.2263,VALID,0,VALID,21.9862,VALID,143,VALID,0.168359,
2010-03-02, 02:38:05,VALID,1000.99,VALID,0,VALID,93.2111,VALID,0,VALID,21.9862,VALID,143,VALID,0.240625,
2010-03-02, 02:39:05,VALID,1001,VALID,0,VALID,93.295,VALID,0,VALID,21.9845,VALID,143,VALID,0.146094,
2010-03-02, 02:40:05,VALID,1000.99,VALID,0,VALID,93.2721,VALID,0,VALID,21.9845,VALID,143,VALID,0.242188,
2010-03-02, 02:41:05,VALID,1001.02,VALID,0,VALID,93.2797,VALID,0,VALID,22.004,VALID,142,VALID,0.237891,
2010-03-02, 02:42:05,VALID,1001.04,VALID,0,VALID,93.295,VALID,0,VALID,22.0252,VALID,142,VALID,0.253906,
2010-03-02, 02:43:05,VALID,1001.06,VALID,0,VALID,93.2492,VALID,0,VALID,22.004,VALID,142,VALID,0.214062,
2010-03-02, 02:44:05,VALID,1001.08,VALID,0,VALID,93.2492,VALID,0,VALID,21.9845,VALID,142,VALID,0,
2010-03-02, 02:45:05,VALID,1001.07,VALID,0,VALID,93.2111,VALID,0,VALID,22.004,VALID,142,VALID,0.286719,
2010-03-02, 02:46:05,VALID,1001.09,VALID,0,VALID,93.2034,VALID,0,VALID,21.9845,VALID,118,VALID,0.332031,
2010-03-02, 02:47:05,VALID,1001.07,VALID,0,VALID,93.2034,VALID,0,VALID,22.0235,VALID,117,VALID,0.483594,
2010-03-02, 02:48:05,VALID,1001.07,VALID,0,VALID,93.2416,VALID,0,VALID,22.004,VALID,113,VALID,0.886328,
2010-03-02, 02:49:05,VALID,1001.07,VALID,0,VALID,93.1882,VALID,0,VALID,22.0235,VALID,105,VALID,0.797656,
2010-03-02, 02:50:05,VALID,1001.09,VALID,0,VALID,93.1271,VALID,0,VALID,21.9828,VALID,97,VALID,0.854688,
2010-03-02, 02:51:05,VALID,1001.08,VALID,0,VALID,93.0585,VALID,0,VALID,22.004,VALID,86,VALID,0.763672,
2010-03-02, 02:52:05,VALID,1001.1,VALID,0,VALID,93.0051,VALID,0,VALID,22.004,VALID,81,VALID,0.832031,
2010-03-02, 02:53:05,VALID,1001.1,VALID,0,VALID,92.9898,VALID,0,VALID,21.9845,VALID,57,VALID,0.625,
2010-03-02, 02:54:05,VALID,1001.08,VALID,0,VALID,92.9898,VALID,0,VALID,21.9845,VALID,62,VALID,0.522656,
2010-03-02, 02:55:05,VALID,1001.11,VALID,0,VALID,93.0203,VALID,0,VALID,22.004,VALID,62,VALID,0.3125,
2010-03-02, 02:56:05,VALID,1001.12,VALID,0,VALID,92.944,VALID,0,VALID,22.004,VALID,79,VALID,0.429297,
2010-03-02, 02:57:05,VALID,1001.14,VALID,0,VALID,92.9822,VALID,0,VALID,22.0235,VALID,80,VALID,0.578516,
2010-03-02, 02:58:05,VALID,1001.11,VALID,0,VALID,92.8983,VALID,0,VALID,22.004,VALID,80,VALID,0.446484,
2010-03-02, 02:59:05,VALID,1001.11,VALID,0,VALID,92.883,VALID,0,VALID,22.0235,VALID,80,VALID,0.177734,
2010-03-02, 03:00:05,VALID,1001.13,VALID,0,VALID,92.822,VALID,0,VALID,22.004,VALID,80,VALID,0.0476562,
2010-03-02, 03:01:05,VALID,1001.14,VALID,0,VALID,92.7533,VALID,0,VALID,21.9845,VALID,80,VALID,0,
2010-03-02, 03:02:05,VALID,1001.14,VALID,0,VALID,92.7457,VALID,0,VALID,21.9633,VALID,80,VALID,0.00429688,
2010-03-02, 03:03:05,VALID,1001.16,VALID,0,VALID,92.7685,VALID,0,VALID,21.965,VALID,80,VALID,0,
2010-03-02, 03:04:05,VALID,1001.2,VALID,0,VALID,92.7457,VALID,0,VALID,21.9845,VALID,80,VALID,0,
2010-03-02, 03:05:05,VALID,1001.2,VALID,0,VALID,92.8143,VALID,0,VALID,21.965,VALID,80,VALID,0.332422,
2010-03-02, 03:06:05,VALID,1001.21,VALID,0,VALID,92.8067,VALID,0,VALID,21.9845,VALID,80,VALID,0.0824219,
2010-03-02, 03:07:05,VALID,1001.21,VALID,0,VALID,92.7609,VALID,0,VALID,21.9845,VALID,80,VALID,0.172266,
2010-03-02, 03:08:05,VALID,1001.21,VALID,0,VALID,92.7762,VALID,0,VALID,21.9845,VALID,80,VALID,0.464453,
2010-03-02, 03:09:05,VALID,1001.19,VALID,0,VALID,92.7457,VALID,0,VALID,21.9845,VALID,100,VALID,0.614844,
2010-03-02, 03:10:05,VALID,1001.19,VALID,0,VALID,92.6923,VALID,0,VALID,22.004,VALID,100,VALID,0.654297,
2010-03-02, 03:11:05,VALID,1001.18,VALID,0,VALID,92.5778,VALID,0,VALID,21.9845,VALID,100,VALID,0.51875,
2010-03-02, 03:12:05,VALID,1001.18,VALID,0,VALID,92.5854,VALID,0,VALID,22.004,VALID,100,VALID,0.521875,
2010-03-02, 03:13:05,VALID,1001.2,VALID,0,VALID,92.5702,VALID,0,VALID,22.004,VALID,100,VALID,0.437891,
2010-03-02, 03:14:05,VALID,1001.24,VALID,0,VALID,92.6007,VALID,0,VALID,22.004,VALID,100,VALID,0.458203,
2010-03-02, 03:15:05,VALID,1001.25,VALID,0,VALID,92.5397,VALID,0,VALID,22.0235,VALID,100,VALID,0.409375,
2010-03-02, 03:16:05,VALID,1001.26,VALID,0,VALID,92.4786,VALID,0,VALID,22.043,VALID,100,VALID,0.191797,
2010-03-02, 03:17:05,VALID,1001.3,VALID,0,VALID,92.471,VALID,0,VALID,22.0235,VALID,100,VALID,0.151172,
2010-03-02, 03:18:05,VALID,1001.3,VALID,0,VALID,92.3642,VALID,0,VALID,22.0235,VALID,100,VALID,0,
2010-03-02, 03:19:05,VALID,1001.32,VALID,0,VALID,92.2879,VALID,0,VALID,22.0235,VALID,100,VALID,0,
2010-03-02, 03:20:05,VALID,1001.29,VALID,0,VALID,92.2879,VALID,0,VALID,22.0057,VALID,100,VALID,0,
2010-03-02, 03:21:05,VALID,1001.31,VALID,0,VALID,92.265,VALID,0,VALID,21.9845,VALID,100,VALID,0,
2010-03-02, 03:22:05,VALID,1001.33,VALID,0,VALID,92.265,VALID,0,VALID,21.9455,VALID,100,VALID,0,
2010-03-02, 03:23:05,VALID,1001.34,VALID,0,VALID,92.1963,VALID,0,VALID,21.9455,VALID,100,VALID,0,
2010-03-02, 03:24:05,VALID,1001.36,VALID,0,VALID,92.2574,VALID,0,VALID,21.9455,VALID,100,VALID,0.229687,
2010-03-02, 03:25:05,VALID,1001.4,VALID,0,VALID,92.204,VALID,0,VALID,21.926,VALID,100,VALID,0.563281,
2010-03-02, 03:26:05,VALID,1001.42,VALID,0,VALID,92.3108,VALID,0,VALID,21.9455,VALID,100,VALID,0.668359,
2010-03-02, 03:27:05,VALID,1001.41,VALID,0,VALID,92.4328,VALID,0,VALID,21.9845,VALID,85,VALID,0.809766,
2010-03-02, 03:28:05,VALID,1001.43,VALID,0,VALID,92.41,VALID,0,VALID,22.0235,VALID,81,VALID,0.651172,
2010-03-02, 03:29:05,VALID,1001.44,VALID,0,VALID,92.2192,VALID,0,VALID,22.0625,VALID,93,VALID,0.707422,
2010-03-02, 03:30:05,VALID,1001.46,VALID,0,VALID,92.0743,VALID,0,VALID,22.043,VALID,92,VALID,0.648438,
2010-03-02, 03:31:05,VALID,1001.48,VALID,0,VALID,92.0743,VALID,0,VALID,22.0625,VALID,92,VALID,0.711719,
2010-03-02, 03:32:05,VALID,1001.48,VALID,0,VALID,91.9064,VALID,0,VALID,22.0625,VALID,92,VALID,0.610547,
2010-03-02, 03:33:05,VALID,1001.48,VALID,0,VALID,91.7996,VALID,0,VALID,22.0625,VALID,73,VALID,0.783203,
2010-03-02, 03:34:05,VALID,1001.47,VALID,0,VALID,91.708,VALID,0,VALID,22.043,VALID,59,VALID,0.650391,
2010-03-02, 03:35:05,VALID,1001.47,VALID,0,VALID,91.708,VALID,0,VALID,22.043,VALID,59,VALID,0.562109,
2010-03-02, 03:36:05,VALID,1001.51,VALID,0,VALID,91.8072,VALID,0,VALID,22.0642,VALID,42,VALID,0.550781,
2010-03-02, 03:37:05,VALID,1001.5,VALID,0,VALID,91.7691,VALID,0,VALID,22.043,VALID,42,VALID,0.405469,
2010-03-02, 03:38:05,VALID,1001.48,VALID,0,VALID,91.7004,VALID,0,VALID,21.9828,VALID,42,VALID,0.359375,
2010-03-02, 03:39:05,VALID,1001.49,VALID,0,VALID,91.914,VALID,0,VALID,22.004,VALID,41,VALID,0.471875,
2010-03-02, 03:40:05,VALID,1001.49,VALID,0,VALID,91.8835,VALID,0,VALID,21.9845,VALID,35,VALID,0.435937,
2010-03-02, 03:41:05,VALID,1001.48,VALID,0,VALID,91.9827,VALID,0,VALID,22.004,VALID,35,VALID,0.459766,
2010-03-02, 03:42:05,VALID,1001.48,VALID,0,VALID,92.0209,VALID,0,VALID,22.004,VALID,35,VALID,0.261328,
2010-03-02, 03:43:05,VALID,1001.47,VALID,0,VALID,91.9369,VALID,0,VALID,21.965,VALID,35,VALID,0.0207031,
2010-03-02, 03:44:05,VALID,1001.49,VALID,0,VALID,91.9217,VALID,0,VALID,21.9455,VALID,35,VALID,0,
2010-03-02, 03:45:05,VALID,1001.51,VALID,0,VALID,91.9293,VALID,0,VALID,21.9065,VALID,35,VALID,0,
2010-03-02, 03:46:05,VALID,1001.51,VALID,0,VALID,91.8759,VALID,0,VALID,21.848,VALID,35,VALID,0,
2010-03-02, 03:47:05,VALID,1001.54,VALID,0,VALID,91.8911,VALID,0,VALID,21.8285,VALID,37,VALID,0.0660156,
2010-03-02, 03:48:05,VALID,1001.52,VALID,0,VALID,92.2192,VALID,0,VALID,21.8675,VALID,142,VALID,0.402734,
2010-03-02, 03:49:05,VALID,1001.48,VALID,0,VALID,92.3642,VALID,0,VALID,21.9065,VALID,142,VALID,0.371094,
2010-03-02, 03:50:05,VALID,1001.49,VALID,0,VALID,92.326,VALID,0,VALID,21.9065,VALID,131,VALID,0.255078,
2010-03-02, 03:51:05,VALID,1001.51,VALID,0,VALID,92.265,VALID,0,VALID,21.887,VALID,131,VALID,0.312891,
2010-03-02, 03:52:05,VALID,1001.49,VALID,0,VALID,92.3337,VALID,0,VALID,21.9065,VALID,128,VALID,0.571094,
2010-03-02, 03:53:05,VALID,1001.48,VALID,0,VALID,92.3413,VALID,0,VALID,21.926,VALID,109,VALID,0.550781,
2010-03-02, 03:54:04,VALID,1001.51,VALID,0,VALID,92.3489,VALID,0,VALID,21.926,VALID,109,VALID,0.671484,
2010-03-02, 03:55:04,VALID,1001.53,VALID,0,VALID,92.2955,VALID,0,VALID,21.9455,VALID,109,VALID,0.607031,
2010-03-02, 03:56:04,VALID,1001.51,VALID,0,VALID,92.2497,VALID,0,VALID,21.9438,VALID,109,VALID,0.505469,